Location: Elaine Barite Prospect
(34.1431°N, 106.7922°W)
Time: 06:55:11
(UTC+00:00)

Cosmos 2058 Rocket - Pass Details

Date: 13 December 2025
Orbit: 603 x 633 km, 82.5° (Epoch: 12 January)

Event Time Altitude Azimuth Distance (km) Brightness Sun altitude
Exits shadow 12:17:36 14° 360° (N) 1,717 5.2 -21.5°
Maximum altitude 12:21:18 70° 83° (E) 655 3.3 -20.7°
Drops below altitude 10° 12:25:37 10° 167° (SSE) 1,957 6.0 -19.8°
Sets 12:27:50 0° 170° (S) 2,853 6.8 -19.4°
